{"data":{"norad_id":65979,"epoch":"2026-05-25T04:04:03.345888Z","epoch_age_seconds":57423,"freshness":"FRESH","line1":"1 65979U 25230F   26145.16948317 -.00005816  00000+0 -51450-2 0  9993","line2":"2 65979  81.3051 232.9222 0002080 249.3169 110.7765 13.85199677 30637","mean_motion":13.85199677,"eccentricity":0.000208,"inclination_deg":81.3051,"raan_deg":232.9222,"arg_perigee_deg":249.3169,"mean_anomaly_deg":110.7765,"bstar":-0.005145,"rev_number":3063,"period_min":103.95613166173,"perigee_km":943.97854021169,"apogee_km":947.02517397624,"semimajor_km":7323.638857094,"source":"CELESTRAK","updated_at":"2026-05-25T13:38:05.877546Z"}}